Ravenna, OH

6:11 AM EST on November 15, 2019 (GMT -0500)
Ravenna

Weather History for KPOV - August, 2019

Change the Weather History Date:

Thursday, August 22, 2019

  Actual Average (WUND) Record (WUND)
Temperature  
Mean Temperature 66 °F -  
Max Temperature 71 °F - - (-1)
Min Temperature 60 °F - - (-1)
Growing Degree Days 16 (Base 50)    
Moisture  
Dew Point 61 °F    
Average Humidity 81    
Maximum Humidity 92    
Minimum Humidity 65    
Precipitation  
Precipitation 0.00 in - - ()
Sea Level Pressure  
Sea Level Pressure 29.99 in    
Wind  
Wind Speed 4 mph (NNW)    
Max Wind Speed 10 mph    
Max Gust Speed -    
Visibility 10 miles    
Events      
Averages and records for this station are not official NWS values.
T = Trace of Precipitation, MM = Missing Value Source: NWS Daily Summary

Daily Weather History Graph

Daily Weather History Graph

Search for Another Location

Airport or City:

Astronomy

Aug. 22, 2019 Rise Set
Actual Time 6:41 AM EDT 8:13 PM EDT
Civil Twilight 6:12 AM EDT 8:42 PM EDT
Nautical Twilight 5:37 AM EDT 9:17 PM EDT
Astronomical Twilight 4:59 AM EDT 9:54 PM EDT
Moon 11:59 PM EDT (8/22) 1:19 PM EDT (8/22)
Length of Visible Light 14h 30m
Length of Day
13h 32m
Waning Gibbous, 60% of the Moon is Illuminated
Aug 22
Waning Gibbous
Aug 23
Last Quarter
Aug 30
New
Sep 5
First Quarter
Sep 14
Full

Hourly Weather History & Observations

Time (EDT) Temp. Dew Point Humidity Pressure Visibility Wind Dir Wind Speed Gust Speed Precip Events Conditions
12:18 AM 70.7 °F 66.7 °F 87% 29.96 in 7.0 mi WSW 3.5 mph - N/A   Clear
12:36 AM 70.5 °F 67.1 °F 89% 29.96 in 7.0 mi Calm Calm - N/A   Clear
12:55 AM 70.0 °F 66.4 °F 88% 29.96 in 7.0 mi Calm Calm - N/A   Clear
1:15 AM 68.9 °F 66.2 °F 91% 29.95 in 7.0 mi Calm Calm - N/A   Clear
1:35 AM 68.5 °F 66.2 °F 92% 29.95 in 7.0 mi WSW 3.5 mph - N/A   Clear
1:58 AM 69.8 °F 66.4 °F 89% 29.95 in 10.0 mi WSW 3.5 mph - N/A   Clear
2:15 AM 70.0 °F 66.4 °F 88% 29.95 in 10.0 mi SW 3.5 mph - N/A   Clear
2:38 AM 70.7 °F 66.2 °F 86% 29.95 in 10.0 mi WSW 4.6 mph - N/A   Clear
2:56 AM 70.9 °F 66.4 °F 86% 29.95 in 10.0 mi WSW 4.6 mph - N/A   Clear
3:18 AM 71.6 °F 66.2 °F 83% 29.95 in 10.0 mi West 8.1 mph - N/A   Scattered Clouds
3:36 AM 70.7 °F 66.2 °F 86% 29.95 in 10.0 mi West 6.9 mph - N/A   Mostly Cloudy
3:55 AM 69.8 °F 65.5 °F 86% 29.95 in 10.0 mi West 9.2 mph - N/A   Mostly Cloudy
4:15 AM 68.4 °F 64.6 °F 88% 29.95 in 10.0 mi West 9.2 mph - N/A   Overcast
4:35 AM 68.0 °F 64.6 °F 89% 29.94 in 10.0 mi WSW 3.5 mph - N/A   Overcast
4:58 AM 67.5 °F 64.4 °F 90% 29.95 in 10.0 mi West 4.6 mph - N/A   Mostly Cloudy
5:15 AM 67.6 °F 64.4 °F 89% 29.95 in 10.0 mi West 5.8 mph - N/A   Scattered Clouds
5:38 AM 67.3 °F 64.0 °F 89% 29.95 in 10.0 mi West 5.8 mph - N/A   Scattered Clouds
5:56 AM 67.1 °F 64.0 °F 90% 29.95 in 10.0 mi WNW 4.6 mph - N/A   Clear
6:18 AM 67.1 °F 64.4 °F 91% 29.95 in 10.0 mi WNW 5.8 mph - N/A   Scattered Clouds
6:36 AM 67.1 °F 64.0 °F 90% 29.96 in 10.0 mi WNW 3.5 mph - N/A   Mostly Cloudy
6:55 AM 67.1 °F 64.0 °F 90% 29.97 in 10.0 mi WNW 5.8 mph - N/A   Overcast
7:15 AM 67.1 °F 64.0 °F 90% 29.97 in 10.0 mi WNW 4.6 mph - N/A   Overcast
7:35 AM 67.1 °F 64.4 °F 91% 29.97 in 10.0 mi NW 3.5 mph - N/A   Overcast
7:58 AM 67.5 °F 64.9 °F 92% 29.98 in 7.0 mi Calm Calm - N/A   Overcast
8:15 AM 67.6 °F 64.9 °F 91% 29.98 in 10.0 mi Calm Calm - N/A   Overcast
8:38 AM 68.0 °F 64.8 °F 89% 29.97 in 10.0 mi Calm Calm - N/A   Scattered Clouds
8:56 AM 68.0 °F 64.6 °F 89% 29.98 in 10.0 mi Calm Calm - N/A   Scattered Clouds
9:18 AM 68.2 °F 64.6 °F 88% 29.99 in 10.0 mi Calm Calm - N/A   Overcast
9:36 AM 69.1 °F 64.8 °F 86% 29.99 in 10.0 mi Calm Calm - N/A   Overcast
9:55 AM 68.9 °F 64.4 °F 86% 29.99 in 10.0 mi Calm Calm - N/A   Overcast
10:15 AM 68.4 °F 64.8 °F 88% 30.00 in 10.0 mi Calm Calm - N/A   Overcast
10:35 AM 68.0 °F 64.4 °F 88% 30.01 in 10.0 mi NNW 5.8 mph - N/A   Overcast
10:58 AM 65.3 °F 60.3 °F 84% 30.02 in 10.0 mi NNE 6.9 mph - N/A   Overcast
11:15 AM 64.8 °F 60.8 °F 87% 30.03 in 10.0 mi North 5.8 mph - N/A   Overcast
11:38 AM 65.1 °F 60.8 °F 86% 30.02 in 10.0 mi NE 4.6 mph - N/A   Overcast
11:56 AM 65.5 °F 61.0 °F 85% 30.02 in 10.0 mi NNE 3.5 mph - N/A   Overcast
12:18 PM 65.5 °F 60.3 °F 83% 30.00 in 10.0 mi NE 9.2 mph - N/A   Overcast
12:36 PM 65.5 °F 61.2 °F 86% 29.99 in 10.0 mi NE 8.1 mph - N/A   Overcast
12:55 PM 66.2 °F 60.3 °F 81% 30.00 in 10.0 mi NE 10.4 mph - N/A   Mostly Cloudy
1:15 PM 65.3 °F 56.8 °F 74% 30.00 in 10.0 mi NE 10.4 mph - N/A   Overcast
1:35 PM 65.8 °F 57.7 °F 75% 30.00 in 10.0 mi NE 9.2 mph - N/A   Mostly Cloudy
1:58 PM 67.1 °F 57.0 °F 70% 30.01 in 10.0 mi ENE 8.1 mph - N/A   Mostly Cloudy
2:15 PM 67.5 °F 57.2 °F 70% 30.01 in 10.0 mi NE 5.8 mph - N/A   Mostly Cloudy
2:38 PM 66.4 °F 56.1 °F 69% 30.02 in 10.0 mi NNE 3.5 mph - N/A   Mostly Cloudy
2:56 PM 66.2 °F 55.6 °F 69% 30.02 in 10.0 mi NE 5.8 mph - N/A   Overcast
3:20 PM 66.2 °F 56.5 °F 71% 30.01 in 10.0 mi North 4.6 mph - N/A   Overcast
3:38 PM 66.0 °F 55.8 °F 69% 30.01 in 10.0 mi NE 6.9 mph - N/A   Overcast
3:56 PM 65.7 °F 55.9 °F 71% 30.00 in 10.0 mi North 6.9 mph - N/A   Overcast
4:18 PM 66.7 °F 55.9 °F 68% 30.00 in 10.0 mi North 5.8 mph - N/A   Overcast
4:36 PM 68.2 °F 57.2 °F 68% 30.00 in 10.0 mi North 6.9 mph - N/A   Overcast
4:55 PM 67.5 °F 56.7 °F 68% 30.00 in 10.0 mi North 4.6 mph - N/A   Overcast
5:15 PM 68.9 °F 57.4 °F 67% 30.00 in 10.0 mi NE 4.6 mph - N/A   Overcast
5:35 PM 68.2 °F 56.3 °F 66% 30.00 in 10.0 mi North 5.8 mph - N/A   Overcast
5:59 PM 67.6 °F 55.4 °F 65% 30.00 in 10.0 mi NNE 4.6 mph - N/A   Overcast
6:15 PM 68.0 °F 56.3 °F 66% 30.00 in 10.0 mi NE 4.6 mph - N/A   Overcast
6:39 PM 68.0 °F 56.3 °F 66% 30.01 in 10.0 mi NNE 4.6 mph - N/A   Overcast
6:57 PM 67.5 °F 56.5 °F 68% 30.02 in 10.0 mi Calm Calm - N/A   Overcast
7:19 PM 67.1 °F 57.7 °F 72% 30.01 in 10.0 mi Calm Calm - N/A   Overcast
7:37 PM 67.1 °F 57.4 °F 71% 30.01 in 10.0 mi NNE 3.5 mph - N/A   Overcast
7:55 PM 66.2 °F 57.6 °F 74% 30.01 in 10.0 mi Calm Calm - N/A   Mostly Cloudy
8:15 PM 64.6 °F 57.6 °F 78% 30.03 in 10.0 mi Calm Calm - N/A   Clear
8:35 PM 63.5 °F 56.7 °F 78% 30.02 in 10.0 mi Calm Calm - N/A   Scattered Clouds
8:59 PM 63.5 °F 56.5 °F 78% 30.03 in 10.0 mi Calm Calm - N/A   Scattered Clouds
9:15 PM 62.2 °F 56.3 °F 81% 30.03 in 10.0 mi Calm Calm - N/A   Clear
9:39 PM 60.6 °F 56.5 °F 86% 30.04 in 10.0 mi Calm Calm - N/A   Scattered Clouds
9:58 PM 61.7 °F 55.8 °F 81% 30.05 in 10.0 mi Calm Calm - N/A   Scattered Clouds
10:15 PM 62.4 °F 55.6 °F 78% 30.05 in 10.0 mi Calm Calm - N/A   Mostly Cloudy
10:39 PM 61.2 °F 56.5 °F 85% 30.05 in 10.0 mi Calm Calm - N/A   Overcast
10:57 PM 61.7 °F 55.9 °F 81% 30.05 in 10.0 mi NNE 3.5 mph - N/A   Overcast
11:19 PM 61.0 °F 55.2 °F 81% 30.06 in 10.0 mi Calm Calm - N/A   Scattered Clouds
11:37 PM 61.2 °F 54.9 °F 80% 30.06 in 10.0 mi NNE 3.5 mph - N/A   Clear
11:56 PM 60.8 °F 54.7 °F 80% 30.07 in 10.0 mi Calm Calm - N/A   Clear